W5IM Weather Reports


Display with metric or nautical units.
time (UTC)temp
F
wind
direction
speed
MPH
gust
MPH
rain 1hr
in
rain 24hr
in
rain mn
in
humidity
%
barometer
mb
20220116185946 58 280 9.0 14.0 0.00 0.00 0.00 22 1022.0
20220116175945 55 300 7.0 16.0 0.00 0.00 0.00 29 1023.8
20220116165942 52 333 11.0 17.0 0.00 0.00 0.00 33 1024.8
20220116155942 46 319 10.0 16.0 0.00 0.00 0.00 39 1025.3
20220116145941 39 304 12.0 14.0 0.00 0.00 0.00 50 1025.2
20220116135938 32 314 8.0 8.0 0.00 0.00 0.00 69 1025.0
20220116125937 30 323 5.0 8.0 0.00 0.00 0.00 69 1024.6
20220116115933 29 332 5.0 6.0 0.00 0.00 0.00 70 1024.5
20220116105933 32 325 0.0 8.0 0.00 0.00 0.00 64 1024.6
20220116095931 35 336 5.0 9.0 0.00 0.00 0.00 55 1025.2
20220116085929 32 321 0.0 3.0 0.00 0.00 0.00 60 1025.8
20220116075957 36 305 2.0 9.0 0.00 0.00 0.00 52 1025.4
20220116065956 36 307 5.0 8.0 0.00 0.00 0.00 51 1025.7
20220116045952 41 332 5.0 8.0 0.00 0.00 0.00 44 1025.3
20220116035951 43 294 5.0 9.0 0.00 0.00 0.00 38 1025.0
20220116025948 45 308 5.0 8.0 0.00 0.00 0.00 35 1024.7
20220116015947 48 343 5.0 10.0 0.00 0.00 0.00 31 1023.7
20220116005947 52 328 7.0 18.0 0.00 0.00 0.00 25 1022.8
20220115235943 56 330 10.0 28.0 0.00 0.00 0.00 22 1021.9
20220115225941 58 293 16.0 35.0 0.00 0.00 0.00 21 1021.1
20220115215940 61 330 14.0 34.0 0.00 0.00 0.00 20 1019.9
20220115205938 62 314 17.0 35.0 0.00 0.00 0.00 20 1020.1
20220115195936 61 290 19.0 34.0 0.00 0.00 0.00 24 1020.7